Regional Weather Roundup
Issued by NWS

Home | Current Version | Previous Version | Text Only | Print | Product List | Glossary On
Versions: 1 2 3 4 5 6 7 8 9 10 11 12 13 14 15 16 17 18 19 20 21 22 23 24 25 26 27 28 29 30 31 32 33 34 35 36 37 38 39 40 41 42 43 44 45 46 47 48
000
ASUS45 KCYS 272310
RWRWY

WYOMING REGIONAL WEATHER ROUNDUP
NATIONAL WEATHER SERVICE CHEYENNE WY
400 PM MST TUE JAN 27 2015

NOTE:  "FAIR" INDICATES FEW OR NO CLOUDS BELOW 12,000 FEET
WITH NO SIGNIFICANT WEATHER AND/OR OBSTRUCTIONS TO VISIBILITY.

WYZ001-280000-
YELLOWSTONE NATIONAL PARK

CITY           SKY/WX    TMP DP  RH WIND       PRES   REMARKS
LK YELLOWSTONE   N/A     42  23  46 VRB5      30.15F
W YELLOWSTONE  NOT AVBL

$$
WYZ002>013-054>058-071-098>099-280000-
NORTHERN WYOMING

CITY           SKY/WX    TMP DP  RH WIND       PRES   REMARKS
JACKSON        PTSUNNY   23  23 100 CALM      30.16F
CODY           FAIR      45  32  61 CALM      29.95S
GREYBULL       FAIR      35  28  75 NW5       29.95F WCI  31
WORLAND        FAIR      36  28  73 CALM      29.95F
SHERIDAN       FAIR      50  33  52 W7        29.88F
BUFFALO          N/A    N/A N/A N/A MISG      29.91S
GILLETTE       FAIR      59  31  34 W5        29.90S
HULETT           N/A    N/A N/A N/A MISG        N/A
NEWCASTLE      FAIR      61  27  27 W7        29.95F

$$
WYZ014>020-022>026-101>103-280000-
CENTRAL WYOMING

CITY           SKY/WX    TMP DP  RH WIND       PRES   REMARKS
BIG PINEY      CLOUDY    38  26  62 NE3       30.16F
PINEDALE       CLOUDY    36  27  69 NW6       30.18S WCI  31
DUBOIS         FAIR      48  19  32 W18G25    30.07R
LANDER         FAIR      44  29  55 CALM      30.01F
RIVERTON       FAIR      43  31  62 W3        30.03F
CASPER         FAIR      53  27  36 SW21G31   30.02F
DOUGLAS        FAIR      63  23  21 W6        30.00S

$$
WYZ021-027>030-104>119-280000-
SOUTHERN WYOMING

CITY           SKY/WX    TMP DP  RH WIND       PRES   REMARKS
EVANSTON       FAIR      45  31  58 SW16      30.18S
KEMMERER       FAIR      45  30  57 SW9       30.18S
FORT BRIDGER   FAIR      48  33  55 W8        30.20S
ROCK SPRINGS   FAIR      46  27  47 W12       30.16S
DIXON          CLOUDY    46  28  48 S7        30.23F
RAWLINS        FAIR      50  25  37 SW16      30.15F
SARATOGA       FAIR      50  23  34 W18       30.17S
LARAMIE        FAIR      51  22  31 S7        30.14F
CHEYENNE       FAIR      62  19  19 W12       30.06F
TORRINGTON     FAIR      69  23  17 NW8       29.96F
PINE BLUFFS    FAIR      64  23  20 E3        30.02F

$$


USA.gov is the U.S. government's official web portal to all federal, state and local government web resources and services.